Vernon, TX

8:44 PM CDT on March 22, 2017 (GMT -0500)
Vernon

Weather History for KF05 - January, 2013

Change the Weather History Date:

Tuesday, January 22, 2013

  Actual Average (KLTS) Record (KLTS)
Temperature  
Mean Temperature 45 °F -  
Max Temperature 65 °F 50 °F 77 °F (2002)
Min Temperature 25 °F 27 °F 16 °F (2008)
Degree Days  
Heating Degree Days 20    
Moisture  
Dew Point 28 °F    
Average Humidity 54    
Maximum Humidity 75    
Minimum Humidity 32    
Precipitation  
Precipitation 0.00 in - - ()
Sea Level Pressure  
Sea Level Pressure 30.21 in    
Wind  
Wind Speed 4 mph (South)    
Max Wind Speed 15 mph    
Max Gust Speed 21 mph    
Visibility 10 miles    
Events      
Averages and records for this station are not official NWS values.
T = Trace of Precipitation, MM = Missing Value Source: NWS Daily Summary

Daily Weather History Graph

Daily Weather History Graph

Search for Another Location

Airport or City:

Trip Planner

Search our weather history database for the weather conditions in past years. The results will help you decide how hot, cold, wet, or windy it might be!

Date:

Astronomy

Jan. 22, 2013 Rise Set
Actual Time 7:40 AM CST 5:57 PM CST
Civil Twilight 7:13 AM CST 6:24 PM CST
Nautical Twilight 6:43 AM CST 6:54 PM CST
Astronomical Twilight 6:13 AM CST 7:24 PM CST
Moon 2:23 PM CST (1/22) 4:01 AM CST (1/22)
Length of Visible Light 11h 11m
Length of Day
10h 17m
Waxing Gibbous, 83% of the Moon is Illuminated
Jan 22
Waxing Gibbous
Jan 26
Full
Feb 3
Last Quarter
Feb 10
New
Feb 17
First Quarter

Hourly Weather History & Observations

Time (CST) Temp. Windchill Dew Point Humidity Pressure Visibility Wind Dir Wind Speed Gust Speed Precip Events Conditions
12:15 AM 31.1 °F 27.7 °F 18.0 °F 58% 30.27 in 10.0 mi NE 3.5 mph - N/A   Scattered Clouds
12:35 AM 31.6 °F 27.0 °F 18.5 °F 58% 30.27 in 10.0 mi ENE 4.6 mph - N/A   Clear
12:55 AM 30.7 °F - 18.9 °F 61% 30.27 in 10.0 mi Calm Calm - N/A   Clear
1:15 AM 31.6 °F - 19.0 °F 60% 30.26 in 10.0 mi Calm Calm - N/A   Clear
1:35 AM 28.9 °F - 18.3 °F 65% 30.26 in 10.0 mi Calm Calm - N/A   Clear
1:55 AM 29.1 °F - 18.0 °F 63% 30.26 in 10.0 mi Calm Calm - N/A   Clear
2:15 AM 29.5 °F - 17.8 °F 62% 30.26 in 10.0 mi Calm Calm - N/A   Clear
2:35 AM 29.5 °F - 17.8 °F 62% 30.27 in 10.0 mi Calm Calm - N/A   Clear
2:55 AM 28.6 °F - 18.0 °F 64% 30.27 in 10.0 mi Calm Calm - N/A   Clear
3:15 AM 29.1 °F - 18.1 °F 64% 30.27 in 10.0 mi Calm Calm - N/A   Clear
3:35 AM 30.6 °F - 18.3 °F 60% 30.26 in 10.0 mi Calm Calm - N/A   Clear
3:55 AM 29.7 °F - 18.0 °F 62% 30.26 in 10.0 mi Calm Calm - N/A   Clear
4:15 AM 29.1 °F - 18.1 °F 64% 30.26 in 10.0 mi Calm Calm - N/A   Clear
4:35 AM 29.3 °F - 18.1 °F 63% 30.25 in 10.0 mi Calm Calm - N/A   Clear
4:55 AM 30.2 °F - 18.3 °F 61% 30.26 in 10.0 mi Calm Calm - N/A   Clear
5:15 AM 29.1 °F - 18.0 °F 63% 30.26 in 10.0 mi Calm Calm - N/A   Clear
5:55 AM 28.2 °F - 18.3 °F 66% 30.26 in 10.0 mi Calm Calm - N/A   Clear
6:15 AM 28.2 °F - 18.3 °F 66% 30.26 in 10.0 mi Calm Calm - N/A   Clear
6:35 AM 28.2 °F - 18.3 °F 66% 30.27 in 10.0 mi Calm Calm - N/A   Clear
6:55 AM 27.9 °F - 18.3 °F 67% 30.27 in 10.0 mi Calm Calm - N/A   Clear
7:15 AM 27.3 °F - 18.3 °F 69% 30.28 in 10.0 mi Calm Calm - N/A   Clear
7:35 AM 26.8 °F 22.8 °F 18.3 °F 70% 30.27 in 10.0 mi South 3.5 mph - N/A   Clear
7:55 AM 25.7 °F 19.0 °F 18.5 °F 74% 30.26 in 10.0 mi SSW 5.8 mph - N/A   Clear
8:15 AM 26.4 °F 19.8 °F 19.4 °F 75% 30.26 in 10.0 mi SW 5.8 mph - N/A   Clear
8:35 AM 27.7 °F - 20.5 °F 74% 30.26 in 10.0 mi Calm Calm - N/A   Clear
8:55 AM 30.0 °F 25.2 °F 21.0 °F 69% 30.26 in 10.0 mi SSW 4.6 mph - N/A   Clear
9:15 AM 33.3 °F 27.9 °F 21.7 °F 63% 30.26 in 10.0 mi SSW 5.8 mph - N/A   Clear
9:35 AM 36.0 °F 32.1 °F 22.5 °F 58% 30.26 in 10.0 mi SW 4.6 mph - N/A   Clear
9:55 AM 38.1 °F 32.3 °F 22.5 °F 53% 30.27 in 10.0 mi SW 8.1 mph - N/A   Clear
10:15 AM 40.3 °F 35.5 °F 23.0 °F 50% 30.27 in 10.0 mi SW 6.9 mph - N/A   Clear
10:55 AM 45.5 °F 40.8 °F 24.8 °F 44% 30.25 in 10.0 mi SW 9.2 mph - N/A   Clear
11:15 AM 47.8 °F - 25.2 °F 41% 30.25 in 10.0 mi SSW 11.5 mph - N/A   Clear
11:35 AM 50.0 °F - 25.5 °F 39% 30.24 in 10.0 mi SW 11.5 mph - N/A   Clear
11:55 AM 52.9 °F - 26.1 °F 35% 30.24 in 10.0 mi SW 11.5 mph - N/A   Clear
12:15 PM 55.0 °F - 26.6 °F 33% 30.23 in 10.0 mi SSW 11.5 mph - N/A   Clear
12:35 PM 56.7 °F - 27.3 °F 33% 30.22 in 10.0 mi SSW 10.4 mph 18.4 mph N/A   Clear
12:55 PM 57.9 °F - 28.0 °F 32% 30.20 in 10.0 mi SSW 11.5 mph - N/A   Clear
1:15 PM 59.4 °F - 29.5 °F 32% 30.19 in 10.0 mi SSW 11.5 mph - N/A   Clear
1:35 PM 59.7 °F - 30.4 °F 33% 30.17 in 10.0 mi SSW 11.5 mph - N/A   Clear
1:55 PM 61.0 °F - 31.6 °F 33% 30.16 in 10.0 mi SSW 12.7 mph - N/A   Clear
2:15 PM 61.7 °F - 32.7 °F 34% 30.14 in 10.0 mi SSW 15.0 mph - N/A   Clear
2:35 PM 62.6 °F - 33.8 °F 34% 30.13 in 10.0 mi SSW 15.0 mph 20.7 mph N/A   Clear
2:55 PM 63.5 °F - 35.2 °F 35% 30.13 in 10.0 mi SSW 12.7 mph - N/A   Clear
3:15 PM 64.4 °F - 36.7 °F 36% 30.13 in 10.0 mi SW 11.5 mph - N/A   Clear
3:35 PM 64.9 °F - 37.0 °F 36% 30.13 in 10.0 mi SSW 13.8 mph - N/A   Clear
3:55 PM 64.9 °F - 37.4 °F 36% 30.13 in 10.0 mi SSW 11.5 mph 17.3 mph N/A   Clear
4:15 PM 65.1 °F - 37.6 °F 36% 30.13 in 10.0 mi SW 11.5 mph - N/A   Clear
4:35 PM 65.3 °F - 37.6 °F 36% 30.13 in 10.0 mi SW 10.4 mph - N/A   Clear
4:55 PM 65.1 °F - 37.8 °F 36% 30.13 in 10.0 mi South 8.1 mph - N/A   Clear
5:15 PM 64.2 °F - 37.8 °F 38% 30.13 in 10.0 mi South 8.1 mph - N/A   Clear
5:35 PM 62.6 °F - 37.9 °F 40% 30.13 in 10.0 mi South 4.6 mph - N/A   Clear
5:55 PM 61.0 °F - 37.9 °F 42% 30.14 in 10.0 mi SSE 5.8 mph - N/A   Clear
6:15 PM 58.6 °F - 37.9 °F 46% 30.14 in 10.0 mi SSE 4.6 mph - N/A   Clear
6:35 PM 57.6 °F - 38.3 °F 49% 30.14 in 10.0 mi ESE 4.6 mph - N/A   Clear
6:55 PM 56.7 °F - 38.1 °F 50% 30.15 in 10.0 mi ESE 5.8 mph - N/A   Clear
7:15 PM 55.0 °F - 37.6 °F 52% 30.15 in 10.0 mi ESE 5.8 mph - N/A   Clear
7:55 PM 52.9 °F - 38.1 °F 57% 30.14 in 10.0 mi SE 8.1 mph - N/A   Clear
8:15 PM 51.3 °F - 37.8 °F 60% 30.14 in 10.0 mi SE 6.9 mph - N/A   Clear
8:35 PM 50.5 °F - 37.8 °F 62% 30.15 in 10.0 mi SE 9.2 mph - N/A   Clear
8:55 PM 50.7 °F - 37.6 °F 61% 30.15 in 10.0 mi SE 8.1 mph - N/A   Clear
9:15 PM 49.1 °F - 37.0 °F 63% 30.15 in 10.0 mi SE 8.1 mph - N/A   Clear
9:35 PM 48.4 °F - 36.7 °F 64% 30.16 in 10.0 mi SE 5.8 mph - N/A   Clear
9:55 PM 48.7 °F - 36.7 °F 63% 30.16 in 10.0 mi SE 5.8 mph - N/A   Clear
10:15 PM 47.8 °F - 36.1 °F 64% 30.16 in 10.0 mi ENE 3.5 mph - N/A   Clear
10:55 PM 45.3 °F - 35.1 °F 67% 30.17 in 10.0 mi Calm Calm - N/A   Clear
11:15 PM 44.6 °F - 35.2 °F 70% 30.17 in 10.0 mi Calm Calm - N/A   Clear
11:35 PM 45.0 °F - 35.4 °F 69% 30.17 in 10.0 mi Calm Calm - N/A   Clear
11:55 PM 44.4 °F - 35.8 °F 72% 30.18 in 10.0 mi Calm Calm - N/A   Clear